COSMOS 2436 (723) (32395 NORAD) Tracking and Keplerian Element Data

This shows tracking and keplerian element data for the satellite.

Feedback or suggestion? Click here.




ElementValue
Catalog32395
NameCOSMOS 2436 (723)
Epoch Orbit13310
Epoch Day34.68736306
Epoch Year2025
RAAN208.8056
Inclination64.3265
Eccentricity0.0017493
Argument of Perigee9.6969
Mean Anonmoly111.5896
Mean Motion2.13100078
Decay Rate1.02E-06
L11 32395U 07065C 25034.68736306 .00000102 00000+0 00000+0 0 9994
L22 32395 64.3265 208.8056 0017493 9.6969 111.5896 2.13100078133103



Live tracking and technical data element details for COSMOS 2436 (723) (NORAD 32395). COSMOS 2436 (723) can be tracked NOW for your location showing map with azimuth and elevation plus other details from your city location.







IsCatalogInMostPopularTable: catalog: 32395, numindb: 364
Update: records affected: 1



GetName: 32395 COSMOS 2436 (723)

Hit Count: updated at: Sat, 24 May 2025 17:28:24 GMT